Regional Weather Roundup
Issued by NWS

Current Version | Previous Version | Text Only | Print | Product List | Glossary On
Versions: 1 2 3 4 5 6 7 8 9 10 11 12 13 14 15 16 17 18 19 20 21 22 23 24 25 26 27 28 29 30 31 32 33 34 35 36 37 38 39 40 41 42 43 44 45 46 47 48 49 50
000
ASUS42 KTBW 100717
RWRFL
FLORIDA REGIONAL WEATHER ROUNDUP
NATIONAL WEATHER SERVICE TAMPA BAY RUSKIN FL
300 AM EDT FRI JUL 10 2020

NOTE: "FAIR" INDICATES FEW OR NO CLOUDS BELOW 12,000 FEET WITH NO
SIGNIFICANT WEATHER AND/OR OBSTRUCTIONS TO VISIBILITY.

FLZ001>010-012>015-112-114-115-100800-
PANHANDLE FLORIDA

CITY           SKY/WX    TMP DP  RH WIND       PRES   REMARKS
PENSACOLA      CLEAR     81  78  91 W5        29.94F
PENSACOLA NAS  CLEAR     82  78  88 W3        29.94F
MILTON NAS     CLOUDY    78  75  90 W6        29.95F
CRESTVIEW      PTCLDY    77  70  79 W5        29.95F
DUKE FIELD     FAIR      77  71  82 W6        29.94F
VALPARAISO     CLEAR     77  72  83 NW5       29.94F
MARY ESTHER    PTCLDY    76  71  86 CALM      29.93F
TRI COUNTY     FAIR      79  76  90 VRB3      29.93F
PANAMA CITY    FAIR      79  76  90 CALM      29.92F
TYNDALL AFB    CLEAR     81  74  78 W9        29.92F
APALACHICOLA   CLEAR     80  79  96 W5        29.92F

STATION/POSITION SKY/WX   TEMP    WIND        PRES    WAVE   SWELL
                          AIR SEA DIR/SP/G            HT/PER HT/PER
                          (F)     (DEG/KT/KT) (MB)    (FT/S) (FT/S)
PANAMA CITY BEAC           80 78  300/ 10/ 12 1014.0F
TOWER C                    81     270/ 13/ 14 1014.0F

$$
FLZ011-016>038-118-127-128-134-139-239-100800-
NORTH FLORIDA

CITY           SKY/WX    TMP DP  RH WIND       PRES   REMARKS
MARIANNA       CLEAR     78  76  93 W6        29.90F
TALLAHASSEE    CLEAR     78  77  96 W7        29.91F
LIVE OAK       CLEAR     79  79 100 CALM      29.91S
CROSS CITY     CLEAR     81  79  94 W7        29.92S
LAKE CITY      FAIR      77  75  94 SW3       29.91F
GAINESVILLE    CLEAR     78  78 100 W8        29.92F
PALATKA        FAIR      73  72  94 W5        29.90F
MAYPORT NAS    CLEAR     79  74  84 SW6       29.88F
JACKSONVILLE   PTCLDY    75  74  96 SW5       29.87F
JAX NAS        MOCLDY    79  73  82 W8        29.89F
JAX CECIL      CLEAR     77  73  88 SW3       29.89F
FERNANDINA BEA FAIR      77 N/A N/A W3        29.88F
ST AUGUSTINE   CLEAR     78  76  93 SW5       29.90F
PALM COAST     FAIR      76  75  96 CALM      29.90F

STATION/POSITION SKY/WX   TEMP    WIND        PRES    WAVE   SWELL
                          AIR SEA DIR/SP/G            HT/PER HT/PER
                          (F)     (DEG/KT/KT) (MB)    (FT/S) (FT/S)
SHELL POINT      NOT AVBL
KEATON BEACH               82     290/ 14/ 17 1013.3F
CEDAR KEY                  83     300/ 10/ 14 1013.3F
FERNANDINA                 83 83  240/  2/  4 1012.1F
MAYPORT                    80 83  250/  5/  7 1012.5F
ST AUGUSTINE               78 83  240/  4/  6 1012.4F

$$
FLZ040-043>046-052-053-057-058-063-144-100800-
INTERIOR CENTRAL FLORIDA

CITY           SKY/WX    TMP DP  RH WIND       PRES   REMARKS
OCALA          PTCLDY    78  78 100 SW5       29.93F
LEESBURG       MOCLDY    80  77  90 VRB5      29.93F
SANFORD        MOCLDY    81  75  82 W8        29.92F
ORLANDO EXEC   PTCLDY    82  76  81 SW8       29.93F
ORLANDO INTL   MOCLDY    81  76  84 SW6       29.93F
KISSIMMEE      PTCLDY    79  77  94 W8        29.95F
WINTER HAVEN   PTCLDY    80  76  87 SW5       29.96F
LAKELAND       MOCLDY    77  75  94 SW5       29.96F
BARTOW         FAIR      79  75  89 SW5       29.95F
SEBRING        FAIR      80  76  86 W7        29.96S
OKEECHOBEE     PTCLDY    77  73  88 CALM      29.96R

$$
FLZ041-047-054-059-064-141-147-100800-
EAST CENTRAL FLORIDA

CITY           SKY/WX    TMP DP  RH WIND       PRES   REMARKS
DAYTONA BEACH  MOCLDY    76  76 100 SW5       29.90F
DELAND         MOCLDY    78  76  92 SW5       29.92F
JFK SPACE CTR  CLOUDY    80  76  88 W6        29.91F
CAPE CANAVERAL MOCLDY    81  76  82 W6        29.91F
PATRICK AFB    MOCLDY    82  74  77 W13       29.92F
MELBOURNE      MOCLDY    79  76  90 W9        29.92F
VERO BEACH     CLOUDY    80  74  81 W3        29.94F
FT PIERCE      CLOUDY    79  77  94 W5        29.94F
STUART         MOCLDY    81  73  78 W6        29.97R

STATION/POSITION SKY/WX   TEMP    WIND        PRES    WAVE   SWELL
                          AIR SEA DIR/SP/G            HT/PER HT/PER
                          (F)     (DEG/KT/KT) (MB)    (FT/S) (FT/S)
TRIDENT PIER               81 81  260/  6/  9 1014.2F
28.4N   80.5W                 81                N/A     2/ 4
27.5N   80.2W                 83                N/A     2/ 9

$$
FLZ050-056-061-142-242-148-248-149-249-151-251-155-255-
160-260-100800-
WEST CENTRAL FLORIDA

CITY           SKY/WX    TMP DP  RH WIND       PRES   REMARKS
CRYSTAL RIVER  CLOUDY    82  77  83 W9        29.93S
INVERNESS      FAIR      77  77 100 CALM      29.93F FOG
BROOKSVILLE    PTCLDY    82  75  79 W7        29.94F
CLEARWATER AIR MOCLDY    82  75  78 W8        29.95F
ST PETE CLEARW MOCLDY    85  78  80 W10       29.95F HX  96
TAMPA INTL     MOCLDY    83  75  77 NW7       29.95F
TAMPA EXEC     PTCLDY    81  77  89 CALM      29.95F
PLANT CITY     PTCLDY    81  81 100 CALM      29.97F
MACDILL AFB    PTCLDY    83  76  77 W5        29.94F
PETER O KNIGHT CLOUDY    84  81  89 W8        29.95F HX  98
ST PETERSBURG  LGT RAIN  85  79  82 W9        29.94F HX  98
SARASOTA       PTCLDY    86  77  74 W13       29.94F HX  97
VENICE         FAIR      84  77  79 W13       29.96F

STATION/POSITION SKY/WX   TEMP    WIND        PRES    WAVE   SWELL
                          AIR SEA DIR/SP/G            HT/PER HT/PER
                          (F)     (DEG/KT/KT) (MB)    (FT/S) (FT/S)
27.3N   84.3W                 85                N/A     2/ 4
CLEARWATER BEACH           85 89  270/ 15/ 18 1014.5
MIDDLE TAMPA BAY           84     290/ 14/ 17 1014.5F
VENICE                     85 89  270/ 15/ 17 1015.1F

$$
FLZ066-069-070-075>078-162-262-165-265-100800-
SOUTHWEST FLORIDA AND KEYS

CITY           SKY/WX    TMP DP  RH WIND       PRES   REMARKS
PUNTA GORDA    PTCLDY    83  79  88 W6        29.98F
FT MYERS       CLEAR     83  77  82 W6        29.96F
SOUTHWEST INTL CLEAR     83  77  82 CALM      29.97F
NAPLES         PTCLDY    85  77  77 W5        29.97F HX  95
MARCO ISLAND   CLEAR    N/A N/A N/A NW3       29.99S
IMMOKALEE      FAIR      79  75  89 CALM      29.97S
MARATHON       MOCLDY    85  77  77 CALM      29.97F HX  95
KEY WEST NAS   MOCLDY    87  76  69 W3        29.98F HX  97
KEY WEST INTL  MOCLDY    85  78  80 CALM      29.99F HX  96

STATION/POSITION SKY/WX   TEMP    WIND        PRES    WAVE   SWELL
                          AIR SEA DIR/SP/G            HT/PER HT/PER
                          (F)     (DEG/KT/KT) (MB)    (FT/S) (FT/S)
NAPLES                     87 90  280/  8/  9 1015.7F
DRY TORTUGAS     NOT AVBL

$$
FLZ067-068-071>074-168-172>174-100800-
SOUTHEAST FLORIDA

CITY           SKY/WX    TMP DP  RH WIND       PRES   REMARKS
W PALM BEACH   MOCLDY    83  75  77 W6        29.96F
FT LAUDER-EXEC PTCLDY    82  78  88 SW7       29.96F
FT LAUDERDALE  PTCLDY    83  77  82 SW6       29.96F
POMPANO BEACH  PTCLDY    81  77  88 W6        29.96F
PEMBROKE PINES PTCLDY   N/A N/A N/A W7        29.98F
OPA LOCKA      CLEAR     81  74  79 W7        29.97F
MIAMI          PTCLDY    85  76  74 W5        29.97F
WEST KENDALL   CLEAR     81  77  88 W7        29.97F
HOMESTEAD      CLEAR     79  75  87 SW5       29.96F

STATION/POSITION SKY/WX   TEMP    WIND        PRES    WAVE   SWELL
                          AIR SEA DIR/SP/G            HT/PER HT/PER
                          (F)     (DEG/KT/KT) (MB)    (FT/S) (FT/S)
VIRGINIA KEY               85 90  240/ 10/ 11 1015.6F
LAKE WORTH                 83 86  250/  5/  6 1013.8F
FOWEY ROCKS                85 87  260/ 12/ 13 1015.1F

$$





USA.gov is the U.S. government's official web portal to all federal, state and local government web resources and services.